Location: Alta Loma Christian School
(34.1325°N, 117.5882°W)
Time: 09:36:20
(UTC+00:00)

Daily predictions for brighter satellites

Satellite Brightness Start Highest point End
(mag) Time Altitude Azimuth Time Altitude Azimuth Time Altitude Azimuth
USA 238 DEB 4.2 12:10:11 42° N 12:10:11 42° N 12:14:41 10° NNE
USA 238 4.2 12:10:15 43° N 12:10:15 43° N 12:14:47 10° NNE
Cosmos 2034 Rocket 4.0 12:08:28 54° NNE 12:09:57 76° E 12:16:14 10° S
Chandra Rocket (1) 4.5 12:15:51 11° SSE 12:15:51 11° SSE 12:15:58 10° SSE
Cosmos 1867 4.5 12:13:50 39° NNE 12:14:57 44° ENE 12:20:07 10° SE
Cosmos 1943 Rocket 3.8 12:34:39 20° N 12:34:39 20° N 12:36:29 10° N
CZ-2C R/B 4.1 12:28:00 10° SE 12:32:58 36° ENE 12:37:52 10° N
Tsikada Rocket 3.8 12:26:51 10° S 12:33:00 76° W 12:39:16 10° N
Cosmos 2082 Rocket 3.5 12:45:15 24° SW 12:45:15 24° SW 12:47:56 10° SSW
CZ-4B R/B 4.5 12:47:56 10° NNE 12:52:23 66° E 12:56:48 10° S
Cosmos 1812 3.7 12:52:27 12° N 12:55:51 46° E 12:59:33 10° SSE
Okean 3 Rocket 4.3 12:52:17 10° S 12:56:41 56° E 13:01:08 10° NNE
SL-19 R/B 4.2 12:51:54 10° SSE 12:57:34 86° ENE 13:03:09 10° NNW
Cosmos 1241 Rocket 4.4 12:53:49 23° NNW 12:57:51 84° ENE 13:04:04 10° SSE
Cosmos 921 Rocket 3.6 12:54:48 16° N 12:58:10 58° ENE 13:02:34 10° SSE
DELTA 2 R/B (1) 3.5 12:56:59 43° W 12:58:49 73° NNW 13:04:22 10° ENE
MOS 1-B Rocket 4.0 12:52:33 10° SSE 12:59:15 89° WSW 13:05:09 10° NNW
Cosmos 2098 Rocket 2.7 12:56:15 10° S 12:59:44 87° E 13:04:08 10° N
Envisat 2.8 12:54:57 10° N 13:00:02 80° WNW 13:05:06 10° SSW
Cosmos 968 Rocket 4.2 13:03:36 31° NW 13:03:36 31° NW 13:07:05 10° N
CZ-3 R/B 4.0 12:51:20 10° SW 13:05:12 28° S 13:10:46 10° ESE
Cosmos 1766 Rocket 3.4 13:04:24 10° S 13:08:44 90° S 13:13:05 10° N
Meteor 2-3 Rocket 4.3 13:05:22 10° SW 13:10:22 32° WNW 13:15:26 10° NNW
Cosmos 1151 Rocket 3.3 13:07:31 10° N 13:11:54 70° E 13:16:14 10° SSE
CENTAUR R/B 3.8 13:12:13 19° NW 13:12:13 19° NW 13:16:38 10° N
Meteor 1-31 Rocket 2.7 13:10:26 10° N 13:14:18 67° WNW 13:18:10 10° SSW
Cosmos 1782 3.0 13:14:09 35° NW 13:15:18 46° W 13:19:04 10° SSW
Hubble Space Telescope 2.7 13:15:04 16° SW 13:16:31 19° SSW 13:19:26 10° SSE
Cosmos 1862 3.1 13:13:31 10° SSW 13:17:25 71° W 13:21:22 10° N
ATLAS 5 CENTAUR R/B 2.9 13:16:10 10° S 13:19:35 35° ESE 13:23:11 10° NE
Cosmos 1354 Rocket 4.0 13:16:35 10° SSW 13:21:50 88° ESE 13:27:09 10° NNE
CBERS 1 LM4 rocket 4.5 13:19:03 10° N 13:23:50 55° WNW 13:28:46 10° SSW
SJ-12 4.5 13:20:22 10° N 13:24:08 35° WNW 13:27:54 10° SW
FALCON 9 R/B 4.0 13:05:29 21° W 13:24:10 89° S 13:30:59 10° E
Cosmos 1328 Rocket 3.8 13:21:16 10° N 13:25:38 69° E 13:29:56 10° SSE
H-2A R/B 3.4 13:22:46 10° NNW 13:26:04 30° WNW 13:29:23 10° SW
ADEOS 3.5 13:21:18 10° NNE 13:26:33 90° WNW 13:31:45 10° SSW
COSMO-SKYMED 1 2.5 13:22:20 10° S 13:26:38 65° W 13:30:57 10° NNW
CZ-4C R/B 3.1 13:26:14 10° SSE 13:29:22 64° ENE 13:32:28 10° N
CZ-2C R/B 3.3 13:30:54 10° NNE 13:35:49 72° ESE 13:40:58 10° S
Gbstr 26 Del rocket 3.6 13:33:48 22° WNW 13:35:51 39° SW 13:40:02 10° SSE
ATLAS 3B R/B 3.3 13:32:26 10° SSW 13:38:43 58° ESE 13:45:14 10° NE
CZ-4B R/B 2.8 13:37:07 10° NNE 13:40:40 73° ESE 13:44:16 10° S
Cosmos 1408 Rocket 3.4 13:39:30 10° S 13:43:48 80° W 13:48:07 10° N
Cosmos 2369 Rocket 3.2 13:43:02 10° WSW 13:47:19 22° WNW 13:51:38 10° N
Uosat 12 SS-18 rocket 4.5 13:44:13 10° SW 13:49:00 75° WNW 13:54:57 10° NNE
Centaur D-1A AC-35 3.9 13:46:35 10° SW 13:50:01 26° S 13:53:28 10° ESE
Cosmos 1743 Rocket 4.2 13:47:06 10° S 13:51:25 60° E 13:55:44 10° NNE
FengYun 1-2 T 4.5 13:51:44 10° NNE 13:57:14 75° ESE 14:02:42 10° S
H-2A R/B 4.1 13:56:19 10° NE 14:00:40 31° E 14:05:01 10° SSE
Cosmos 2279 Rocket 4.3 13:55:44 10° NNW 14:01:35 45° W 14:07:25 10° SSW
USA 215 3.5 13:55:09 10° SE 14:01:39 75° NE 14:08:10 10° NW
FAST Rocket 3.9 13:59:11 10° S 14:01:57 82° E 14:04:36 10° N
Nadezhda 4 Rocket 4.0 13:59:06 10° SSW 14:05:10 68° W 14:11:22 10° N
DMSP B5D2-2 4.1 14:00:52 10° S 14:06:04 76° WSW 14:11:18 10° NNW
Cosmos 1515 Rocket 3.5 14:02:00 10° N 14:06:21 75° W 14:10:40 10° S
SJ 16-02 1.3 14:03:32 10° SSW 14:07:53 67° WNW 14:12:15 10° N
SL-27 R/B 3.4 14:04:44 10° N 14:08:12 49° ENE 14:11:37 10° SSE
Cosmos 1340 Rocket 2.7 14:05:07 10° SSW 14:09:02 77° W 14:13:00 10° N
Meteor 1-20 Rocket 4.5 14:07:10 10° S 14:12:40 77° E 14:18:18 10° NNE
CZ-2C R/B 3.8 14:08:47 10° SSW 14:13:14 25° W 14:17:38 10° NW
Cosmos 1777 Rocket 4.1 14:09:46 10° SSW 14:14:50 54° WNW 14:19:58 10° N
